Weather History for Cook, MN

Change the Weather History Date:

Thursday, March 7, 2013

  Actual Average Record
Temperature  
Mean Temperature 10 °F -  
Max Temperature 32 °F 27 °F 35 °F (2006)
Min Temperature -13 °F 4 °F -27 °F (2008)
Degree Days  
Heating Degree Days 56    
Moisture  
Dew Point 4 °F    
Average Humidity 70    
Maximum Humidity 92    
Minimum Humidity 48    
Precipitation  
Precipitation 0.00 in - - ()
Sea Level Pressure  
Sea Level Pressure 30.32 in    
Wind  
Wind Speed 2 mph (SE)    
Max Wind Speed 9 mph    
Max Gust Speed -    
Visibility 10 miles    
Events      
Averages and records for this station are not official NWS values.
T = Trace of Precipitation, MM = Missing Value Source: NWS Daily Summary

Daily Weather History Graph

Daily Weather History Graph

Search for Another Location

Airport:

Trip Planner

Search our weather history database for the weather conditions in past years. The results will help you decide how hot, cold, wet, or windy it might be!

Date:

Astronomy

Mar. 07, 2013 Rise Set
Actual Time 6:39 AM CST 6:04 PM CST
Civil Twilight 6:08 AM CST 6:35 PM CST
Nautical Twilight 5:32 AM CST 7:11 PM CST
Astronomical Twilight 4:56 AM CST 7:47 PM CST
Moon 3:55 AM CST (3/7) 1:38 PM CST (3/7)
Length of Visible Light 12h 27m
Length of Day
11h 25m
Waning Crescent, 20% of the Moon is Illuminated
Mar 7
Waning Crescent
Mar 11
New
Mar 19
First Quarter
Mar 27
Full
Apr 2
Last Quarter

Hourly Weather History & Observations

Time (CST) Temp. Windchill Dew Point Humidity Pressure Visibility Wind Dir Wind Speed Gust Speed Precip Events Conditions
12:16 AM -2.2 °F - -5.8 °F 85% 30.33 in 10.0 mi Calm Calm - N/A   Overcast
12:36 AM -0.4 °F - -5.8 °F 78% 30.32 in 10.0 mi Calm Calm - N/A   Overcast
12:57 AM -2.2 °F - -5.8 °F 85% 30.32 in 10.0 mi Calm Calm - N/A   Mostly Cloudy
1:16 AM -4.0 °F - -7.6 °F 85% 30.32 in 10.0 mi Calm Calm - N/A   Scattered Clouds
1:37 AM -5.8 °F - -9.4 °F 84% 30.33 in 10.0 mi Calm Calm - N/A   Clear
1:57 AM -5.8 °F - -9.4 °F 84% 30.33 in 10.0 mi Calm Calm - N/A   Clear
2:16 AM -5.8 °F - -9.4 °F 84% 30.32 in 10.0 mi Calm Calm - N/A   Clear
2:37 AM -7.6 °F - -11.2 °F 84% 30.32 in 10.0 mi Calm Calm - N/A   Clear
2:57 AM -7.6 °F - -11.2 °F 84% 30.33 in 10.0 mi Calm Calm - N/A   Clear
3:16 AM -7.6 °F - -11.2 °F 84% 30.34 in 10.0 mi Calm Calm - N/A   Clear
3:37 AM -7.6 °F - -11.2 °F 84% 30.35 in 10.0 mi Calm Calm - N/A   Scattered Clouds
3:57 AM -7.6 °F - -11.2 °F 84% 30.35 in 10.0 mi Calm Calm - N/A   Scattered Clouds
4:16 AM -7.6 °F - -13.0 °F 77% 30.35 in 10.0 mi Calm Calm - N/A   Mostly Cloudy
4:37 AM -9.4 °F - -14.8 °F 77% 30.34 in 10.0 mi Calm Calm - N/A   Unknown
4:56 AM -9.4 °F - -14.8 °F 77% 30.34 in 4.0 mi Calm Calm - N/A   Haze
5:16 AM -11.2 °F - -16.6 °F 77% 30.34 in 7.0 mi Calm Calm - N/A   Clear
5:37 AM -11.2 °F - -16.6 °F 77% 30.34 in 7.0 mi Calm Calm - N/A   Clear
5:56 AM -13.0 °F - -16.6 °F 84% 30.36 in 7.0 mi Calm Calm - N/A   Clear
6:16 AM -11.2 °F - -16.6 °F 77% 30.36 in 10.0 mi Calm Calm - N/A   Scattered Clouds
6:37 AM -13.0 °F - -18.4 °F 77% 30.36 in 7.0 mi Calm Calm - N/A   Overcast
6:56 AM -13.0 °F - -18.4 °F 77% 30.36 in 10.0 mi Calm Calm - N/A   Overcast
7:16 AM -13.0 °F - -16.6 °F 84% 30.36 in 10.0 mi Calm Calm - N/A   Overcast
7:37 AM -11.2 °F - -14.8 °F 84% 30.35 in 10.0 mi Calm Calm - N/A   Overcast
7:56 AM -7.6 °F - -11.2 °F 84% 30.36 in 7.0 mi Calm Calm - N/A   Overcast
8:16 AM -5.8 °F - -7.6 °F 92% 30.36 in 5.0 mi Calm Calm - N/A   Scattered Clouds
8:37 AM -0.4 °F - -4.0 °F 85% 30.37 in 5.0 mi Calm Calm - N/A   Clear
8:56 AM 6.8 °F - 3.2 °F 85% 30.36 in 10.0 mi Calm Calm - N/A   Clear
9:17 AM 10.4 °F - 6.8 °F 85% 30.36 in 10.0 mi Calm Calm - N/A   Clear
9:37 AM 17.6 °F 10.7 °F 10.4 °F 73% 30.35 in 10.0 mi East 4.6 mph - N/A   Clear
9:56 AM 19.4 °F 11.5 °F 10.4 °F 68% 30.36 in 10.0 mi East 5.8 mph - N/A   Clear
10:17 AM 21.2 °F 16.4 °F 10.4 °F 63% 30.35 in 10.0 mi East 3.5 mph - N/A   Clear
10:37 AM 21.2 °F 16.4 °F 10.4 °F 63% 30.35 in 10.0 mi East 3.5 mph - N/A   Clear
10:56 AM 23.0 °F 18.4 °F 10.4 °F 59% 30.35 in 10.0 mi SE 3.5 mph - N/A   Clear
11:17 AM 24.8 °F 20.5 °F 10.4 °F 54% 30.35 in 10.0 mi ESE 3.5 mph - N/A   Clear
11:37 AM 24.8 °F 20.5 °F 12.2 °F 59% 30.35 in 10.0 mi ENE 3.5 mph - N/A   Clear
11:56 AM 26.6 °F 22.6 °F 12.2 °F 55% 30.34 in 10.0 mi South 3.5 mph - N/A   Clear
12:17 PM 26.6 °F 21.2 °F 12.2 °F 55% 30.34 in 10.0 mi SE 4.6 mph - N/A   Clear
12:37 PM 26.6 °F 21.2 °F 12.2 °F 55% 30.33 in 10.0 mi East 4.6 mph - N/A   Clear
12:56 PM 28.4 °F 24.6 °F 12.2 °F 51% 30.33 in 10.0 mi SE 3.5 mph - N/A   Clear
1:17 PM 28.4 °F 22.2 °F 12.2 °F 51% 30.32 in 10.0 mi SSE 5.8 mph - N/A   Clear
1:37 PM 28.4 °F 24.6 °F 12.2 °F 51% 30.31 in 10.0 mi South 3.5 mph - N/A   Clear
1:56 PM 30.2 °F 26.7 °F 14.0 °F 51% 30.30 in 10.0 mi SE 3.5 mph - N/A   Clear
2:17 PM 30.2 °F 24.3 °F 14.0 °F 51% 30.30 in 10.0 mi SE 5.8 mph - N/A   Clear
2:36 PM 32.0 °F 26.4 °F 14.0 °F 48% 30.29 in 10.0 mi SSE 5.8 mph - N/A   Clear
2:56 PM 32.0 °F 27.5 °F 15.8 °F 51% 30.29 in 10.0 mi SE 4.6 mph - N/A   Clear
3:17 PM 30.2 °F 24.3 °F 15.8 °F 55% 30.29 in 10.0 mi SE 5.8 mph - N/A   Clear
3:36 PM 32.0 °F 24.8 °F 15.8 °F 51% 30.28 in 10.0 mi SSE 8.1 mph - N/A   Clear
3:57 PM 32.0 °F 25.6 °F 15.8 °F 51% 30.28 in 10.0 mi ESE 6.9 mph - N/A   Clear
4:17 PM 32.0 °F 26.4 °F 15.8 °F 51% 30.28 in 10.0 mi SE 5.8 mph - N/A   Clear
4:36 PM 32.0 °F 28.7 °F 15.8 °F 51% 30.28 in 10.0 mi ESE 3.5 mph - N/A   Clear
4:57 PM 32.0 °F 27.5 °F 15.8 °F 51% 30.28 in 10.0 mi SE 4.6 mph - N/A   Clear
5:17 PM 32.0 °F 27.5 °F 15.8 °F 51% 30.27 in 10.0 mi SE 4.6 mph - N/A   Clear
5:36 PM 30.2 °F 26.7 °F 15.8 °F 55% 30.27 in 10.0 mi ESE 3.5 mph - N/A   Clear
5:57 PM 28.4 °F - 15.8 °F 59% 30.28 in 10.0 mi Calm Calm - N/A   Clear
7:36 PM 24.8 °F 16.9 °F 15.8 °F 69% 30.28 in 10.0 mi SE 6.9 mph - N/A   Scattered Clouds
7:57 PM 24.8 °F 19.1 °F 15.8 °F 69% 30.27 in 10.0 mi ESE 4.6 mph - N/A   Scattered Clouds
8:16 PM 24.8 °F 17.9 °F 15.8 °F 69% 30.27 in 10.0 mi SE 5.8 mph - N/A   Scattered Clouds
8:36 PM 24.8 °F 19.1 °F 14.0 °F 64% 30.27 in 10.0 mi ESE 4.6 mph - N/A   Scattered Clouds
8:56 PM 24.8 °F 17.9 °F 14.0 °F 64% 30.26 in 10.0 mi ESE 5.8 mph - N/A   Scattered Clouds
9:17 PM 24.8 °F 15.3 °F 15.8 °F 69% 30.27 in 10.0 mi SE 9.2 mph - N/A   Mostly Cloudy
9:36 PM 23.0 °F 13.9 °F 15.8 °F 74% 30.26 in 10.0 mi SE 8.1 mph - N/A   Scattered Clouds
9:56 PM 21.2 °F 11.7 °F 15.8 °F 80% 30.27 in 10.0 mi SE 8.1 mph - N/A   Clear
10:17 PM 21.2 °F 10.9 °F 15.8 °F 80% 30.27 in 10.0 mi SE 9.2 mph - N/A   Scattered Clouds
10:36 PM 21.2 °F 13.6 °F 15.8 °F 80% 30.27 in 10.0 mi SE 5.8 mph - N/A   Mostly Cloudy
10:56 PM 19.4 °F 9.5 °F 15.8 °F 86% 30.27 in 10.0 mi SE 8.1 mph - N/A   Scattered Clouds
11:17 PM 19.4 °F 14.3 °F 14.0 °F 80% 30.28 in 10.0 mi ESE 3.5 mph - N/A   Clear
11:36 PM 17.6 °F 9.3 °F 14.0 °F 86% 30.28 in 10.0 mi ESE 5.8 mph - N/A   Clear